FW0111 Weather Reports


Display with metric or nautical units.
time (UTC)temp
F
wind
direction
speed
MPH
gust
MPH
rain 1hr
in
rain 24hr
in
rain mn
in
humidity
%
barometer
mb
20210805152811 78 360 0.0 0.0 0.00 0.00 0.00 43 1012.5
20210805152305 77 360 0.0 0.0 0.00 0.00 0.00 43 1012.6
20210805151758 77 360 0.0 0.0 0.00 0.00 0.00 45 1012.7
20210805151256 77 360 0.0 0.0 0.00 0.00 0.00 44 1012.6
20210805150809 77 360 0.0 0.0 0.00 0.00 0.00 46 1012.8
20210805150302 76 360 0.0 0.0 0.00 0.00 0.00 44 1012.9
20210805145756 76 360 0.0 0.0 0.00 0.00 0.00 44 1013.2
20210805145311 76 360 0.0 0.0 0.00 0.00 0.00 44 1013.2
20210805144803 76 360 0.0 0.0 0.00 0.00 0.00 43 1013.2
20210805144257 76 360 0.0 1.0 0.00 0.00 0.00 43 1013.3
20210805143756 76 360 0.0 1.0 0.00 0.00 0.00 44 1013.4
20210805143310 76 360 0.0 0.0 0.00 0.00 0.00 43 1013.3
20210805142803 76 360 0.0 0.0 0.00 0.00 0.00 45 1013.1
20210805142257 75 360 0.0 0.0 0.00 0.00 0.00 46 1013.3
20210805141811 75 360 0.0 0.0 0.00 0.04 0.00 47 1013.4
20210805141305 74 360 0.0 0.0 0.00 0.04 0.00 50 1013.4
20210805140800 74 360 0.0 0.0 0.00 0.04 0.00 48 1013.5
20210805140313 73 360 0.0 0.0 0.00 0.04 0.00 50 1013.5
20210805135811 72 360 0.0 0.0 0.00 0.04 0.00 53 1013.4
20210805135306 72 360 0.0 0.0 0.00 0.04 0.00 53 1013.3
20210805134758 71 360 0.0 0.0 0.00 0.04 0.00 54 1013.2
20210805134313 71 360 0.0 0.0 0.00 0.04 0.00 54 1013.2
20210805133807 71 360 0.0 0.0 0.00 0.04 0.00 54 1013.1
20210805133302 70 360 0.0 0.0 0.00 0.04 0.00 53 1013.1
20210805132755 70 360 0.0 0.0 0.00 0.04 0.00 53 1013.1
20210805132310 70 360 0.0 0.0 0.00 0.04 0.00 54 1013.1
20210805131807 70 360 0.0 0.0 0.00 0.04 0.00 56 1013.2
20210805131301 70 360 0.0 0.0 0.00 0.04 0.00 55 1013.2
20210805130815 69 360 0.0 0.0 0.00 0.04 0.00 56 1013.0
20210805130308 69 360 0.0 0.0 0.00 0.04 0.00 58 1013.1
20210805125800 68 360 0.0 0.0 0.00 0.04 0.00 58 1013.0
20210805125255 68 360 0.0 0.0 0.00 0.04 0.00 59 1013.0
20210805124810 68 360 0.0 0.0 0.00 0.04 0.00 59 1013.0
20210805124309 68 360 0.0 0.0 0.00 0.04 0.00 60 1013.0
20210805123801 69 360 0.0 0.0 0.00 0.04 0.00 60 1012.9
20210805123257 70 360 0.0 0.0 0.00 0.04 0.00 57 1012.9
20210805122812 70 360 0.0 0.0 0.00 0.04 0.00 56 1012.8
20210805122306 70 360 0.0 0.0 0.00 0.04 0.00 56 1012.7
20210805121801 69 360 0.0 0.0 0.00 0.04 0.00 56 1012.6
20210805121254 69 360 0.0 0.0 0.00 0.04 0.00 55 1012.6
20210805120809 69 360 0.0 0.0 0.00 0.04 0.00 55 1012.4
20210805120308 69 360 0.0 0.0 0.00 0.04 0.00 56 1012.5
20210805115800 69 360 0.0 0.0 0.00 0.04 0.00 57 1012.4
20210805115255 69 360 0.0 0.0 0.00 0.04 0.00 56 1012.4
20210805114809 68 360 0.0 0.0 0.00 0.04 0.00 56 1012.3
20210805114301 68 360 0.0 0.0 0.00 0.04 0.00 57 1012.3
20210805113756 68 360 0.0 0.0 0.00 0.04 0.00 57 1012.4
20210805113310 68 360 0.0 0.0 0.00 0.04 0.00 57 1012.3
20210805112809 68 360 0.0 0.0 0.00 0.04 0.00 57 1012.2
20210805112305 68 360 0.0 0.0 0.00 0.04 0.00 57 1012.2
20210805111757 68 360 0.0 0.0 0.00 0.04 0.00 58 1012.2
20210805111311 68 360 0.0 0.0 0.00 0.04 0.00 56 1012.2
20210805110806 69 360 0.0 0.0 0.00 0.04 0.00 55 1012.1
20210805110301 69 360 0.0 0.0 0.00 0.04 0.00 54 1012.0
20210805105814 70 360 0.0 0.0 0.00 0.04 0.00 53 1011.9
20210805105308 71 360 0.0 0.0 0.00 0.04 0.00 52 1011.9
20210805104807 71 360 0.0 0.0 0.00 0.04 0.00 53 1011.7
20210805104300 71 360 0.0 0.0 0.00 0.04 0.00 52 1011.7
20210805103755 72 360 0.0 0.0 0.00 0.04 0.00 52 1011.7
20210805103309 73 360 0.0 0.0 0.00 0.04 0.00 49 1011.7
20210805102801 72 360 0.0 0.0 0.00 0.04 0.00 50 1011.6
20210805102255 72 360 0.0 0.0 0.00 0.04 0.00 51 1011.6
20210805101810 71 360 0.0 0.0 0.00 0.04 0.00 51 1011.8
20210805101309 71 360 0.0 0.0 0.00 0.04 0.00 50 1011.8
20210805100803 71 360 0.0 0.0 0.00 0.04 0.00 50 1011.8
20210805100255 71 360 0.0 0.0 0.00 0.04 0.00 50 1011.8
20210805095810 71 360 0.0 0.0 0.00 0.04 0.00 50 1011.9
20210805095305 71 360 0.0 0.0 0.00 0.04 0.00 49 1011.9
20210805094758 71 360 0.0 1.0 0.00 0.04 0.00 49 1012.0
20210805094310 71 360 0.0 1.0 0.00 0.04 0.00 49 1012.1
20210805093805 71 360 0.0 1.0 0.00 0.04 0.00 50 1012.1
20210805093303 70 360 0.0 1.0 0.00 0.04 0.00 52 1012.2
20210805092757 70 360 0.0 0.0 0.00 0.04 0.00 51 1012.2
20210805092312 70 360 0.0 0.0 0.00 0.04 0.00 51 1012.2
20210805091806 70 360 0.0 0.0 0.00 0.04 0.00 50 1012.3
20210805091300 70 360 0.0 0.0 0.00 0.04 0.00 50 1012.2
20210805090815 70 360 0.0 0.0 0.00 0.04 0.00 50 1012.2
20210805090309 70 360 0.0 0.0 0.00 0.04 0.00 51 1012.3
20210805085806 70 360 0.0 1.0 0.00 0.04 0.00 51 1012.3
20210805085300 70 360 0.0 4.0 0.00 0.04 0.00 51 1012.3
20210805084814 70 360 0.0 0.0 0.00 0.04 0.00 51 1012.3
20210805084307 70 360 0.0 0.0 0.00 0.04 0.00 50 1012.3
20210805083801 71 360 0.0 0.0 0.00 0.04 0.00 50 1012.4
20210805083256 71 360 0.0 1.0 0.00 0.04 0.00 49 1012.4
20210805082811 71 360 0.0 2.0 0.00 0.04 0.00 49 1012.4
20210805082305 71 360 0.0 2.0 0.00 0.04 0.00 49 1012.5
20210805081802 71 360 0.0 3.0 0.00 0.04 0.00 49 1012.6
20210805081256 72 360 0.0 3.0 0.00 0.04 0.00 48 1012.7
20210805080809 72 360 0.0 3.0 0.00 0.04 0.00 48 1012.7
20210805080304 72 360 0.0 3.0 0.00 0.04 0.00 48 1012.7
20210805075758 72 360 0.0 2.0 0.00 0.04 0.00 48 1012.7
20210805075313 72 360 0.0 2.0 0.00 0.04 0.00 48 1012.8
20210805074808 72 360 0.0 3.0 0.00 0.04 0.00 47 1012.9
20210805074305 72 360 0.0 1.0 0.00 0.04 0.00 48 1013.0
20210805073759 72 360 0.0 1.0 0.00 0.04 0.00 48 1012.9
20210805073313 72 360 0.0 0.0 0.00 0.04 0.00 49 1012.9
20210805072808 72 360 0.0 0.0 0.00 0.04 0.00 47 1013.0
20210805072305 72 360 0.0 0.0 0.00 0.04 0.00 47 1013.2
20210805071756 73 360 0.0 1.0 0.00 0.04 0.00 47 1013.4
20210805071311 73 360 0.0 1.0 0.00 0.04 0.00 47 1013.2
20210805070804 72 360 0.0 2.0 0.00 0.04 0.00 48 1013.2
20210805070302 72 360 0.0 3.0 0.00 0.04 0.00 47 1013.0
20210805065757 72 360 0.0 5.0 0.00 0.04 0.00 47 1012.9
20210805065311 73 360 0.0 5.0 0.00 0.04 0.00 46 1012.9
20210805064806 73 360 0.0 2.0 0.00 0.04 0.00 45 1012.9
20210805064259 73 360 0.0 2.0 0.00 0.04 0.00 45 1013.0
20210805063814 73 360 1.0 4.0 0.00 0.04 0.00 45 1013.0
20210805063308 73 360 1.0 6.0 0.00 0.04 0.00 46 1013.0
20210805062806 73 360 1.0 5.0 0.00 0.04 0.00 46 1013.0
20210805062259 73 360 0.0 3.0 0.00 0.04 0.00 46 1013.1
20210805061813 73 360 0.0 8.0 0.00 0.04 0.04 46 1013.2
20210805061308 73 360 2.0 8.0 0.00 0.04 0.04 46 1013.2
20210805060801 73 360 0.0 4.0 0.00 0.04 0.04 45 1013.2
20210805060255 74 360 1.0 5.0 0.00 0.04 0.04 45 1013.3
20210805055810 74 360 1.0 8.0 0.00 0.04 0.04 44 1013.4
20210805055305 74 360 2.0 8.0 0.00 0.04 0.04 44 1013.4
20210805054801 74 360 1.0 5.0 0.00 0.04 0.04 44 1013.4
20210805054255 74 360 2.0 8.0 0.00 0.04 0.04 44 1013.4
20210805053809 74 360 1.0 6.0 0.00 0.04 0.04 44 1013.4
20210805053303 74 360 0.0 6.0 0.00 0.04 0.04 44 1013.5
20210805052756 74 360 0.0 5.0 0.00 0.04 0.04 44 1013.5
20210805052310 74 360 1.0 6.0 0.00 0.04 0.04 43 1013.5
20210805051804 74 360 2.0 6.0 0.00 0.04 0.04 43 1013.7
20210805051303 74 360 0.0 0.0 0.00 0.04 0.04 44 1013.8
20210805050756 74 360 0.0 1.0 0.00 0.04 0.04 44 1013.8
20210805050311 74 360 0.0 1.0 0.00 0.04 0.04 44 1013.9
20210805045806 74 360 0.0 1.0 0.00 0.04 0.04 44 1013.9
20210805045258 74 360 0.0 3.0 0.00 0.04 0.04 43 1014.0
20210805044812 74 360 0.0 5.0 0.00 0.04 0.04 43 1014.1
20210805044307 75 360 1.0 6.0 0.00 0.04 0.04 43 1014.1
20210805043759 75 360 1.0 3.0 0.00 0.04 0.04 43 1013.9
20210805043258 75 360 0.0 2.0 0.00 0.04 0.04 43 1014.0
20210805042813 75 360 0.0 0.0 0.00 0.04 0.04 42 1014.5
20210805042307 75 360 0.0 0.0 0.00 0.04 0.04 43 1014.8
20210805041802 75 360 0.0 0.0 0.00 0.04 0.04 43 1014.6
20210805041254 75 360 0.0 0.0 0.00 0.04 0.04 44 1014.7
20210805040809 75 360 0.0 0.0 0.00 0.04 0.04 44 1014.8
20210805040303 75 360 0.0 0.0 0.00 0.04 0.04 45 1014.8
20210805035802 75 360 0.0 0.0 0.00 0.04 0.04 45 1014.8
20210805035314 75 360 0.0 0.0 0.00 0.04 0.04 45 1014.8
20210805034809 75 360 0.0 0.0 0.00 0.04 0.04 46 1014.8
20210805034302 76 360 0.0 0.0 0.00 0.04 0.04 46 1014.8
20210805033757 76 360 0.0 0.0 0.00 0.04 0.04 45 1014.8
20210805033312 76 360 0.0 0.0 0.00 0.04 0.04 45 1014.8
20210805032806 76 360 0.0 0.0 0.00 0.04 0.04 45 1014.9
20210805032301 76 360 0.0 0.0 0.00 0.04 0.04 45 1015.0
20210805031758 76 360 0.0 0.0 0.00 0.04 0.04 45 1015.0
20210805031312 77 360 0.0 0.0 0.00 0.04 0.04 44 1015.0
20210805030807 77 360 0.0 0.0 0.00 0.04 0.04 43 1014.8
20210805030301 77 360 0.0 0.0 0.00 0.04 0.04 43 1014.6
20210805025814 77 360 0.0 0.0 0.00 0.04 0.04 42 1014.3
20210805025308 77 360 0.0 0.0 0.00 0.04 0.04 43 1014.2
20210805024803 78 360 0.0 0.0 0.00 0.04 0.04 42 1014.1
20210805024259 78 360 0.0 0.0 0.00 0.04 0.04 41 1014.0
20210805023813 78 360 0.0 0.0 0.00 0.04 0.04 42 1013.9
20210805023308 78 360 0.0 0.0 0.00 0.04 0.04 42 1013.7
20210805022803 78 360 0.0 0.0 0.00 0.04 0.04 42 1013.8
20210805022255 79 360 0.0 0.0 0.00 0.04 0.04 43 1013.9
20210805021810 79 360 0.0 0.0 0.00 0.04 0.04 41 1013.6
20210805021304 80 360 0.0 3.0 0.00 0.04 0.04 40 1013.4
20210805020758 81 360 0.0 3.0 0.00 0.04 0.04 39 1013.2
20210805020316 82 360 0.0 3.0 0.00 0.04 0.04 37 1013.1
20210805015809 83 360 0.0 5.0 0.00 0.04 0.04 36 1013.0
20210805015305 84 360 0.0 5.0 0.00 0.04 0.04 34 1013.1
20210805014758 85 360 0.0 0.0 0.00 0.04 0.04 34 1013.0
20210805014312 85 360 0.0 0.0 0.00 0.04 0.04 33 1012.7
20210805013806 86 360 0.0 0.0 0.00 0.04 0.04 33 1012.6
20210805013301 86 360 0.0 0.0 0.00 0.04 0.04 32 1012.5
20210805012800 86 360 0.0 0.0 0.00 0.04 0.04 32 1012.4
20210805012312 87 360 0.0 0.0 0.00 0.04 0.04 33 1012.3
20210805011807 87 360 0.0 0.0 0.00 0.04 0.04 33 1012.2
20210805011301 87 360 0.0 0.0 0.00 0.04 0.04 32 1012.2
20210805010756 87 360 0.0 0.0 0.00 0.04 0.04 33 1012.1
20210805010312 87 360 0.0 0.0 0.00 0.04 0.04 34 1012.1
20210805005805 87 360 0.0 0.0 0.00 0.04 0.04 32 1012.1
20210805005259 87 360 0.0 0.0 0.00 0.04 0.04 34 1012.2
20210805004757 87 360 0.0 0.0 0.00 0.04 0.04 33 1012.2
20210805004312 86 360 0.0 0.0 0.00 0.04 0.04 34 1012.1
20210805003806 86 360 0.0 0.0 0.00 0.04 0.04 34 1012.1
20210805003300 86 360 0.0 0.0 0.00 0.04 0.04 32 1012.1
20210805002814 87 360 0.0 0.0 0.00 0.04 0.04 32 1012.1
20210805002307 87 360 0.0 1.0 0.00 0.04 0.04 31 1012.1
20210805001801 88 360 0.0 1.0 0.00 0.04 0.04 30 1012.1
20210805001258 88 360 0.0 2.0 0.00 0.04 0.04 30 1012.1
20210805000812 88 360 0.0 2.0 0.00 0.04 0.04 29 1012.1
20210805000305 88 360 0.0 1.0 0.00 0.04 0.04 31 1012.1
20210804235759 88 360 0.0 1.0 0.00 0.04 0.04 30 1012.1
20210804235312 88 360 0.0 0.0 0.00 0.04 0.04 31 1012.2
20210804234807 88 360 0.0 0.0 0.00 0.04 0.04 33 1012.2
20210804234258 87 360 0.0 0.0 0.00 0.04 0.04 34 1012.2
20210804233813 87 360 0.0 2.0 0.00 0.04 0.04 33 1012.2
20210804233311 87 360 0.0 2.0 0.00 0.04 0.04 33 1012.3
20210804232806 87 360 0.0 0.0 0.00 0.04 0.04 34 1012.3
20210804232259 87 360 0.0 0.0 0.00 0.04 0.04 35 1012.3
20210804231813 87 360 0.0 1.0 0.00 0.04 0.04 36 1012.3
20210804231307 87 360 0.0 2.0 0.00 0.04 0.04 35 1012.3
20210804230759 87 360 0.0 1.0 0.00 0.04 0.04 34 1012.3
20210804230313 87 360 0.0 1.0 0.00 0.04 0.04 36 1012.4
20210804225807 86 360 0.0 0.0 0.00 0.04 0.04 37 1012.3
20210804225306 86 360 0.0 1.0 0.00 0.04 0.04 35 1012.4
20210804224758 86 360 0.0 2.0 0.00 0.04 0.04 36 1012.4
20210804224313 86 360 0.0 4.0 0.00 0.04 0.04 35 1012.5
20210804223807 86 360 0.0 4.0 0.00 0.04 0.04 36 1012.5
20210804223301 86 360 0.0 4.0 0.00 0.04 0.04 37 1012.5
20210804222757 87 360 0.0 4.0 0.00 0.04 0.04 36 1012.5
20210804222309 87 360 1.0 3.0 0.00 0.04 0.04 35 1012.5
20210804221808 87 360 0.0 3.0 0.00 0.04 0.04 37 1012.6
20210804221303 87 360 0.0 6.0 0.00 0.04 0.04 37 1012.7
20210804220755 87 360 1.0 6.0 0.00 0.04 0.04 37 1012.6
20210804220310 86 360 0.0 3.0 0.00 0.04 0.04 39 1012.8
20210804215804 86 360 0.0 3.0 0.00 0.04 0.04 39 1012.8
20210804215316 86 360 0.0 2.0 0.00 0.04 0.04 40 1012.9
20210804214802 85 360 0.0 2.0 0.00 0.04 0.04 42 1012.9
20210804214311 85 360 0.0 4.0 0.00 0.04 0.04 41 1012.9
20210804213810 85 360 0.0 5.0 0.00 0.04 0.04 41 1012.9
20210804213303 86 360 1.0 5.0 0.00 0.04 0.04 41 1012.9
20210804212758 86 360 1.0 6.0 0.00 0.04 0.04 39 1012.9
20210804212310 86 360 327.0 327.0 0.00 0.00 0.04 39 1012.7
20210804211804 86 360 1.0 4.0 0.00 0.04 0.04 39 1013.0
20210804211259 86 360 0.0 4.0 0.00 0.04 0.04 39 1013.0
20210804210814 86 360 0.0 4.0 0.00 0.04 0.04 38 1013.0
20210804210310 86 360 0.0 11.0 0.00 0.04 0.04 38 1013.0
20210804205806 87 360 2.0 11.0 0.00 0.04 0.04 38 1013.0
20210804205300 86 360 0.0 6.0 0.00 0.04 0.04 38 1013.0
20210804204815 86 360 2.0 8.0 0.00 0.04 0.04 38 1013.0
20210804204307 86 360 1.0 8.0 0.00 0.04 0.04 39 1013.0
20210804203802 86 360 1.0 10.0 0.00 0.04 0.04 39 1013.0
20210804203257 86 360 2.0 10.0 0.00 0.04 0.04 38 1013.0
20210804202812 86 360 1.0 8.0 0.00 0.04 0.04 38 1013.2
20210804202308 85 360 1.0 4.0 0.00 0.04 0.04 42 1013.1
20210804201759 85 360 1.0 8.0 0.00 0.04 0.04 41 1013.1
20210804201310 85 360 2.0 8.0 0.00 0.04 0.04 41 1013.0
20210804200805 85 360 0.0 4.0 0.00 0.04 0.04 40 1013.2
20210804200259 85 360 1.0 4.0 0.00 0.04 0.04 41 1013.1
20210804195813 85 360 1.0 8.0 0.00 0.04 0.04 43 1013.1
20210804195306 85 360 1.0 8.0 0.00 0.04 0.04 42 1013.2
20210804194800 85 360 0.0 3.0 0.00 0.04 0.04 43 1013.3
20210804194259 85 360 0.0 3.0 0.00 0.04 0.04 42 1013.3
20210804193813 84 360 0.0 6.0 0.00 0.04 0.04 44 1013.2
20210804193306 84 360 1.0 6.0 0.00 0.04 0.04 44 1013.2
20210804192800 84 360 1.0 4.0 0.00 0.04 0.04 45 1013.2
20210804192313 84 360 0.0 3.0 0.00 0.04 0.04 44 1013.3
20210804191807 84 360 0.0 1.0 0.00 0.04 0.04 45 1013.3
20210804191302 84 360 0.0 4.0 0.00 0.04 0.04 44 1013.4
20210804190800 84 360 0.0 5.0 0.00 0.04 0.04 44 1013.5
20210804190314 84 360 1.0 5.0 0.00 0.04 0.04 45 1013.4
20210804185806 84 360 1.0 3.0 0.00 0.04 0.04 44 1013.5
20210804185259 84 360 0.0 5.0 0.00 0.04 0.04 44 1013.7
20210804184814 83 360 2.0 5.0 0.00 0.04 0.04 43 1013.7
20210804184308 83 360 0.0 2.0 0.00 0.04 0.04 42 1013.8
20210804183801 83 360 0.0 4.0 0.00 0.04 0.04 40 1013.9
20210804183314 83 360 1.0 4.0 0.00 0.04 0.04 41 1013.9
20210804182812 83 360 0.0 2.0 0.00 0.04 0.04 42 1014.0
20210804182305 83 360 0.0 1.0 0.00 0.04 0.04 40 1014.1
20210804181814 83 360 0.0 2.0 0.00 0.04 0.04 42 1014.0
20210804181308 83 360 0.0 2.0 0.00 0.04 0.04 42 1014.1
20210804180801 82 360 0.0 2.0 0.00 0.04 0.04 45 1014.2
20210804180316 81 360 0.0 0.0 0.00 0.04 0.04 46 1014.3
20210804175808 81 360 0.0 0.0 0.00 0.04 0.04 49 1014.3
20210804175300 80 360 0.0 0.0 0.00 0.04 0.04 53 1014.4
20210804174813 79 360 0.0 0.0 0.00 0.04 0.04 54 1014.4
20210804174306 79 360 0.0 0.0 0.00 0.04 0.04 54 1014.5
20210804173800 79 360 0.0 1.0 0.00 0.04 0.04 54 1014.5
20210804173315 79 360 0.0 1.0 0.00 0.04 0.04 57 1014.5
20210804172807 78 360 0.0 0.0 0.00 0.04 0.04 58 1014.5
20210804172301 78 360 0.0 0.0 0.00 0.04 0.04 57 1014.6
20210804171755 78 360 0.0 0.0 0.00 0.04 0.04 58 1014.6
20210804171310 77 360 0.0 0.0 0.00 0.04 0.04 57 1014.7
20210804170808 77 360 0.0 0.0 0.00 0.04 0.04 59 1014.8
20210804170302 76 360 0.0 0.0 0.00 0.04 0.04 59 1014.9
20210804165757 76 360 0.0 0.0 0.00 0.04 0.04 62 1015.0
20210804165310 76 360 0.0 0.0 0.00 0.04 0.04 59 1014.9
20210804164805 76 360 0.0 0.0 0.00 0.04 0.04 61 1015.0
20210804164259 75 360 0.0 0.0 0.00 0.04 0.04 62 1014.9
20210804163814 75 360 0.0 0.0 0.00 0.04 0.04 62 1014.8
20210804163311 74 360 0.0 0.0 0.00 0.04 0.04 64 1014.8
20210804162805 74 360 0.0 0.0 0.00 0.04 0.04 66 1014.9
20210804162300 73 360 0.0 0.0 0.00 0.04 0.04 65 1014.9
20210804161814 73 360 0.0 0.0 0.00 0.04 0.04 68 1014.8
20210804161305 73 360 0.0 0.0 0.00 0.04 0.04 68 1014.8
20210804160757 73 360 0.0 0.0 0.00 0.04 0.04 68 1014.8
20210804160313 72 360 0.0 0.0 0.00 0.04 0.04 68 1014.9
20210804155805 72 360 0.0 0.0 0.00 0.04 0.04 68 1014.9
20210804155305 71 360 0.0 0.0 0.00 0.04 0.04 70 1014.9
20210804154756 71 360 0.0 0.0 0.00 0.04 0.04 71 1014.9
20210804154310 71 360 0.0 0.0 0.00 0.04 0.04 72 1014.9
20210804153801 70 360 0.0 0.0 0.00 0.04 0.04 74 1014.9
20210804153314 70 360 0.0 0.0 0.00 0.04 0.04 75 1014.9